Weather History for Figari, France

Change the Weather History Date:

Tuesday, November 6, 2012

  Actual Average Record
Temperature  
Mean Temperature 62 °F -  
Max Temperature 66 °F 60 °F 73 °F (2010)
Min Temperature 57 °F 48 °F 39 °F (2006)
Degree Days  
Heating Degree Days 4    
Growing Degree Days 12 (Base 50)    
Moisture  
Dew Point 46 °F    
Average Humidity 59    
Maximum Humidity 67    
Minimum Humidity 49    
Precipitation  
Precipitation 0.00 in - - ()
Sea Level Pressure  
Sea Level Pressure 30.03 in    
Wind  
Wind Speed 13 mph ()    
Max Wind Speed 20 mph    
Max Gust Speed 30 mph    
Visibility 6.2 miles    
Events      
Averages and records for this station are not official NWS values.
T = Trace of Precipitation, MM = Missing Value Source: Averaged Metar Reports

Daily Weather History Graph

Daily Weather History Graph

Search for Another Location

Airport:

Trip Planner

Search our weather history database for the weather conditions in past years. The results will help you decide how hot, cold, wet, or windy it might be!

Date:

Astronomy

Nov. 06, 2012 Rise Set
Actual Time 7:01 AM CET 5:12 PM CET
Civil Twilight 6:32 AM CET 5:41 PM CET
Nautical Twilight 5:59 AM CET 6:14 PM CET
Astronomical Twilight 5:27 AM CET 6:46 PM CET
Moon 11:35 PM CET (11/6) 12:44 PM CET (11/6)
Length of Visible Light 11h 08m
Length of Day
10h 10m
Waning Gibbous, 56% of the Moon is Illuminated
Nov 6
Waning Gibbous
Nov 7
Last Quarter
Nov 13
New
Nov 20
First Quarter
Nov 28
Full

Hourly Weather History & Observations

Time (CET) Temp. Dew Point Humidity Pressure Visibility Wind Dir Wind Speed Gust Speed Precip Events Conditions
12:00 AM 60.8 °F 48.2 °F 63% 29.98 in 6.2 mi West 17.3 mph 29.9 mph N/A   Mostly Cloudy
12:30 AM 60.8 °F 48.2 °F 63% 29.98 in 6.2 mi West 15.0 mph - N/A   Mostly Cloudy
1:00 AM 59.0 °F 48.2 °F 67% 29.98 in 6.2 mi West 12.7 mph - N/A   Mostly Cloudy
1:30 AM 59.0 °F 46.4 °F 63% 29.98 in 6.2 mi West 16.1 mph 28.8 mph N/A   Scattered Clouds
2:00 AM 59.0 °F 46.4 °F 63% 29.98 in 6.2 mi West 12.7 mph - N/A   Mostly Cloudy
2:30 AM 59.0 °F 46.4 °F 63% 29.98 in 6.2 mi West 15.0 mph - N/A   Partly Cloudy
3:00 AM 59.0 °F 46.4 °F 63% 29.98 in 6.2 mi West 12.7 mph 25.3 mph N/A   Partly Cloudy
3:30 AM 59.0 °F 46.4 °F 63% 29.98 in 6.2 mi West 15.0 mph - N/A   Mostly Cloudy
4:00 AM 59.0 °F 46.4 °F 63% 29.98 in 6.2 mi West 13.8 mph - N/A   Scattered Clouds
4:30 AM 59.0 °F 46.4 °F 63% 29.98 in 6.2 mi West 11.5 mph - N/A   Mostly Cloudy
5:00 AM 59.0 °F 46.4 °F 63% 29.98 in 6.2 mi WNW 5.8 mph - N/A   Unknown
5:30 AM 59.0 °F 48.2 °F 67% 29.98 in 6.2 mi WNW 13.8 mph - N/A   Unknown
6:00 AM 59.0 °F 46.4 °F 63% 29.98 in 6.2 mi WNW 12.7 mph - N/A   Unknown
6:30 AM 59.0 °F 46.4 °F 63% 29.98 in 6.2 mi WNW 12.7 mph - N/A   Unknown
7:00 AM 59.0 °F 48.2 °F 67% 29.98 in 6.2 mi West 12.7 mph - N/A   Unknown
7:30 AM 59.0 °F 48.2 °F 67% 30.01 in 6.2 mi West 12.7 mph - N/A   Unknown
8:00 AM 59.0 °F 48.2 °F 67% 30.01 in 6.2 mi West 13.8 mph - N/A   Unknown
8:30 AM 60.8 °F 48.2 °F 63% 30.01 in 6.2 mi West 10.4 mph - N/A   Unknown
9:00 AM 62.6 °F 48.2 °F 59% 30.01 in 6.2 mi West 13.8 mph - N/A   Unknown
9:30 AM 64.4 °F 50.0 °F 59% 30.01 in 6.2 mi West 16.1 mph - N/A   Partly Cloudy
10:00 AM 64.4 °F 48.2 °F 56% 30.04 in 6.2 mi West 16.1 mph - N/A   Mostly Cloudy
10:30 AM 64.4 °F 50.0 °F 59% 30.01 in 6.2 mi West 16.1 mph - N/A   Scattered Clouds
11:00 AM 64.4 °F 46.4 °F 52% 30.04 in 6.2 mi WNW 13.8 mph - N/A   Partly Cloudy
11:30 AM 66.2 °F 46.4 °F 49% 30.04 in 6.2 mi West 16.1 mph - N/A   Partly Cloudy
12:00 PM 66.2 °F 46.4 °F 49% 30.04 in 6.2 mi West 19.6 mph - N/A   Partly Cloudy
12:30 PM 66.2 °F 48.2 °F 52% 30.01 in 6.2 mi WNW 19.6 mph - N/A   Unknown
1:00 PM 64.4 °F 48.2 °F 56% 30.01 in 6.2 mi WNW 18.4 mph - N/A   Unknown
1:30 PM 64.4 °F 46.4 °F 52% 30.01 in 6.2 mi West 18.4 mph - N/A   Unknown
2:00 PM 64.4 °F 46.4 °F 52% 30.01 in 6.2 mi West 15.0 mph - N/A   Partly Cloudy
2:30 PM 64.4 °F 48.2 °F 56% 30.01 in 6.2 mi WNW 12.7 mph - N/A   Partly Cloudy
3:00 PM 64.4 °F 46.4 °F 52% 30.04 in 6.2 mi WNW 16.1 mph - N/A   Scattered Clouds
3:30 PM 62.6 °F 44.6 °F 52% 30.01 in 6.2 mi WNW 13.8 mph - N/A   Unknown
4:00 PM 60.8 °F 44.6 °F 55% 30.04 in 6.2 mi WNW 15.0 mph - N/A   Unknown
4:30 PM 60.8 °F 44.6 °F 55% 30.04 in 6.2 mi WNW 12.7 mph - N/A   Unknown
5:00 PM 60.8 °F 46.4 °F 59% 30.06 in 6.2 mi WNW 11.5 mph - N/A   Unknown
5:30 PM 60.8 °F 46.4 °F 59% 30.06 in 6.2 mi WNW 10.4 mph - N/A   Unknown
6:00 PM 60.8 °F 48.2 °F 63% 30.06 in 6.2 mi WNW 8.1 mph - N/A   Unknown
6:30 PM 59.0 °F 46.4 °F 63% 30.06 in 6.2 mi WNW 8.1 mph - N/A   Unknown
7:00 PM 59.0 °F 46.4 °F 63% 30.06 in 6.2 mi West 10.4 mph - N/A   Unknown
7:30 PM 59.0 °F 42.8 °F 55% 30.09 in 6.2 mi West 11.5 mph - N/A   Unknown
8:00 PM 59.0 °F 41.0 °F 51% 30.09 in 6.2 mi WNW 11.5 mph 26.5 mph N/A   Unknown
8:30 PM 59.0 °F 41.0 °F 51% 30.09 in 6.2 mi West 13.8 mph - N/A   Unknown
9:00 PM 59.0 °F 41.0 °F 51% 30.09 in 6.2 mi West 9.2 mph - N/A   Unknown
9:30 PM 59.0 °F 42.8 °F 55% 30.09 in 6.2 mi WNW 11.5 mph - N/A   Unknown
10:00 PM 57.2 °F 44.6 °F 63% 30.09 in 6.2 mi WNW 11.5 mph - N/A   Unknown
10:30 PM 57.2 °F 42.8 °F 59% 30.12 in 6.2 mi West 10.4 mph - N/A   Unknown
11:00 PM 57.2 °F 42.8 °F 59% 30.12 in 6.2 mi West 8.1 mph - N/A   Unknown
11:30 PM 57.2 °F 44.6 °F 63% 30.12 in 6.2 mi West 9.2 mph - N/A   Unknown